Retour au catalogue

STARLINK-37351

ActifCommunicationsSSO
NORAD 68742·PAYLOAD·🇺🇸 United States

Lancé Apr 15, 2026 depuis Vandenberg Space Force Base

Loading…

Prochains Passages (prochaines 24 heures)

TLE

FraisSource: CelesTrak SupGP

Époque: Sep 14, 2026, 21:06 UTC

1 68742C 26082Q   26257.87965278  .00014979  00000+0  46556-3 0  2574
2 68742  97.2846 120.1078 0001911  99.2800 275.0301 15.33390608    11

Suivez STARLINK-37351 en temps réel avec AllMySat

Download on the App Store